Time,TemperatureF,DewpointF,PressureIn,WindDirection,WindDirectionDegrees,WindSpeedMPH,WindSpeedGustMPH,Humidity,HourlyPrecipIn,Conditions,Clouds,dailyrainin,SolarRadiationWatts/m^2,SoftwareType,DateUTC
2013-04-27 00:02:00,58.0,43.0,-100.00,SSW,202,7.0,12.0,57,0.00,,,0.00,0.000000,,2013-04-27 05:02:00,
2013-04-27 00:12:00,57.0,43.0,-100.00,SW,214,5.0,13.0,59,0.00,,,0.00,0.000000,,2013-04-27 05:12:00,
2013-04-27 00:42:00,57.0,43.0,-100.00,SW,214,5.0,13.0,59,0.00,,,0.00,0.000000,,2013-04-27 05:42:00,
2013-04-27 00:52:00,57.0,43.0,-100.00,SW,214,5.0,13.0,59,0.00,,,0.00,0.000000,,2013-04-27 05:52:00,
2013-04-27 01:02:00,57.0,43.0,-100.00,SW,214,5.0,13.0,59,0.00,,,0.00,0.000000,,2013-04-27 06:02:00,
2013-04-27 02:32:00,53.0,43.0,-100.00,SSW,212,4.0,8.0,68,-99.99,,,0.00,0.000000,,2013-04-27 07:32:00,
2013-04-27 02:42:00,53.0,43.0,-100.00,SSW,212,4.0,8.0,68,-99.99,,,0.00,0.000000,,2013-04-27 07:42:00,
2013-04-27 02:52:00,53.0,43.0,-100.00,SSW,212,4.0,8.0,68,-99.99,,,0.00,0.000000,,2013-04-27 07:52:00,
2013-04-27 03:01:00,53.0,43.0,-100.00,SSW,212,4.0,8.0,68,-99.99,,,0.00,0.000000,,2013-04-27 08:01:00,
2013-04-27 03:11:00,53.0,43.0,-100.00,SSW,212,4.0,8.0,68,-99.99,,,0.00,0.000000,,2013-04-27 08:11:00,
2013-04-27 03:33:00,52.0,44.0,-100.00,SSW,194,5.0,7.0,74,0.00,,,0.00,0.000000,,2013-04-27 08:33:00,
2013-04-27 03:42:00,52.0,44.0,-100.00,SSW,194,5.0,7.0,74,0.00,,,0.00,0.000000,,2013-04-27 08:42:00,
2013-04-27 03:52:00,52.0,44.0,-100.00,SSW,194,5.0,7.0,74,0.00,,,0.00,0.000000,,2013-04-27 08:52:00,
2013-04-27 04:01:00,52.0,44.0,-100.00,SSW,194,5.0,7.0,74,0.00,,,0.00,0.000000,,2013-04-27 09:01:00,
2013-04-27 04:11:00,52.0,44.0,-100.00,SSW,194,5.0,7.0,74,0.00,,,0.00,0.000000,,2013-04-27 09:11:00,
2013-04-27 04:12:00,50.0,44.0,-100.00,SSW,193,4.0,8.0,79,0.00,,,0.00,0.000000,,2013-04-27 09:12:00,
2013-04-27 04:33:00,50.0,44.0,-100.00,SSW,193,4.0,8.0,79,0.00,,,0.00,0.000000,,2013-04-27 09:33:00,
2013-04-27 04:43:00,50.0,44.0,-100.00,SSW,193,4.0,8.0,79,0.00,,,0.00,0.000000,,2013-04-27 09:43:00,
2013-04-27 04:53:00,50.0,44.0,-100.00,SSW,193,4.0,8.0,79,0.00,,,0.00,0.000000,,2013-04-27 09:53:00,
2013-04-27 05:02:00,50.0,44.0,-100.00,SSW,193,4.0,8.0,79,0.00,,,0.00,0.000000,,2013-04-27 10:02:00,
2013-04-27 05:12:00,48.0,43.0,-100.00,SSW,199,3.0,6.0,83,0.00,,,0.00,0.000000,,2013-04-27 10:12:00,
2013-04-27 05:33:00,48.0,43.0,-100.00,SSW,199,3.0,6.0,83,0.00,,,0.00,0.000000,,2013-04-27 10:33:00,
2013-04-27 05:42:00,48.0,43.0,-100.00,SSW,199,3.0,6.0,83,0.00,,,0.00,0.000000,,2013-04-27 10:42:00,
2013-04-27 05:52:00,48.0,43.0,-100.00,SSW,199,3.0,6.0,83,0.00,,,0.00,0.000000,,2013-04-27 10:52:00,
2013-04-27 06:02:00,48.0,43.0,-100.00,SSW,199,3.0,6.0,83,0.00,,,0.00,0.000000,,2013-04-27 11:02:00,
2013-04-27 06:42:00,47.0,43.0,-100.00,South,185,3.0,7.0,86,0.00,,,0.00,3.000000,,2013-04-27 11:42:00,
2013-04-27 06:52:00,47.0,43.0,-100.00,South,185,3.0,7.0,86,0.00,,,0.00,3.000000,,2013-04-27 11:52:00,
2013-04-27 07:01:00,47.0,43.0,-100.00,South,185,3.0,7.0,86,0.00,,,0.00,3.000000,,2013-04-27 12:01:00,
2013-04-27 07:11:00,47.0,43.0,-100.00,South,185,3.0,7.0,86,0.00,,,0.00,3.000000,,2013-04-27 12:11:00,
2013-04-27 07:32:00,50.0,45.0,-100.00,SSW,197,4.0,6.0,84,0.00,,,0.00,71.000000,,2013-04-27 12:32:00,
2013-04-27 07:42:00,50.0,45.0,-100.00,SSW,197,4.0,6.0,84,0.00,,,0.00,71.000000,,2013-04-27 12:42:00,
2013-04-27 07:52:00,50.0,45.0,-100.00,SSW,197,4.0,6.0,84,0.00,,,0.00,71.000000,,2013-04-27 12:52:00,
2013-04-27 08:02:00,50.0,45.0,-100.00,SSW,197,4.0,6.0,84,0.00,,,0.00,71.000000,,2013-04-27 13:02:00,
2013-04-27 08:11:00,50.0,45.0,-100.00,SSW,197,4.0,6.0,84,0.00,,,0.00,71.000000,,2013-04-27 13:11:00,
2013-04-27 08:42:00,54.0,47.0,-100.00,SSW,206,7.0,10.0,76,0.00,,,0.00,234.000000,,2013-04-27 13:42:00,
2013-04-27 08:52:00,54.0,47.0,-100.00,SSW,206,7.0,10.0,76,0.00,,,0.00,234.000000,,2013-04-27 13:52:00,
2013-04-27 09:02:00,54.0,47.0,-100.00,SSW,206,7.0,10.0,76,0.00,,,0.00,234.000000,,2013-04-27 14:02:00,
2013-04-27 09:11:00,54.0,47.0,-100.00,SSW,206,7.0,10.0,76,0.00,,,0.00,234.000000,,2013-04-27 14:11:00,
2013-04-27 09:12:00,57.0,47.0,-100.00,SW,221,7.0,12.0,69,0.00,,,0.00,404.000000,,2013-04-27 14:12:00,
2013-04-27 09:42:00,57.0,47.0,-100.00,SW,221,7.0,12.0,69,0.00,,,0.00,404.000000,,2013-04-27 14:42:00,
2013-04-27 09:52:00,57.0,47.0,-100.00,SW,221,7.0,12.0,69,0.00,,,0.00,404.000000,,2013-04-27 14:52:00,
2013-04-27 10:01:00,57.0,47.0,-100.00,SW,221,7.0,12.0,69,0.00,,,0.00,404.000000,,2013-04-27 15:01:00,
2013-04-27 10:12:00,62.0,48.0,-100.00,SSW,210,7.0,13.0,60,0.00,,,0.00,595.000000,,2013-04-27 15:12:00,
2013-04-27 10:33:00,62.0,48.0,-100.00,SSW,210,7.0,13.0,60,0.00,,,0.00,595.000000,,2013-04-27 15:33:00,
2013-04-27 10:43:00,62.0,48.0,-100.00,SSW,210,7.0,13.0,60,0.00,,,0.00,595.000000,,2013-04-27 15:43:00,
2013-04-27 10:53:00,62.0,48.0,-100.00,SSW,210,7.0,13.0,60,0.00,,,0.00,595.000000,,2013-04-27 15:53:00,
2013-04-27 11:03:00,62.0,48.0,-100.00,SSW,210,7.0,13.0,60,0.00,,,0.00,595.000000,,2013-04-27 16:03:00,
2013-04-27 11:12:00,65.0,47.0,-100.00,SW,218,7.0,12.0,52,0.00,,,0.00,737.000000,,2013-04-27 16:12:00,
2013-04-27 11:42:00,65.0,47.0,-100.00,SW,218,7.0,12.0,52,0.00,,,0.00,737.000000,,2013-04-27 16:42:00,
2013-04-27 11:53:00,65.0,47.0,-100.00,SW,218,7.0,12.0,52,0.00,,,0.00,737.000000,,2013-04-27 16:53:00,
2013-04-27 12:02:00,65.0,47.0,-100.00,SW,218,7.0,12.0,52,0.00,,,0.00,737.000000,,2013-04-27 17:02:00,
2013-04-27 12:12:00,67.0,46.0,-100.00,SSW,198,7.0,13.0,47,0.00,,,0.00,779.000000,,2013-04-27 17:12:00,
2013-04-27 12:32:00,67.0,46.0,-100.00,SSW,198,7.0,13.0,47,0.00,,,0.00,779.000000,,2013-04-27 17:32:00,
2013-04-27 12:42:00,67.0,46.0,-100.00,SSW,198,7.0,13.0,47,0.00,,,0.00,779.000000,,2013-04-27 17:42:00,
2013-04-27 12:53:00,67.0,46.0,-100.00,SSW,198,7.0,13.0,47,0.00,,,0.00,779.000000,,2013-04-27 17:53:00,
2013-04-27 13:02:00,67.0,46.0,-100.00,SSW,198,7.0,13.0,47,0.00,,,0.00,779.000000,,2013-04-27 18:02:00,
2013-04-27 13:32:00,69.0,46.0,-100.00,SSE,157,6.0,15.0,44,0.00,,,0.00,531.000000,,2013-04-27 18:32:00,
2013-04-27 13:42:00,69.0,46.0,-100.00,SSE,157,6.0,15.0,44,0.00,,,0.00,531.000000,,2013-04-27 18:42:00,
2013-04-27 13:52:00,69.0,46.0,-100.00,SSE,157,6.0,15.0,44,0.00,,,0.00,531.000000,,2013-04-27 18:52:00,
2013-04-27 14:02:00,69.0,46.0,-100.00,SSE,157,6.0,15.0,44,0.00,,,0.00,531.000000,,2013-04-27 19:02:00,
2013-04-27 14:11:00,69.0,46.0,-100.00,SSE,157,6.0,15.0,44,0.00,,,0.00,531.000000,,2013-04-27 19:11:00,
2013-04-27 14:42:00,70.0,46.0,-100.00,SSE,162,7.0,16.0,42,0.00,,,0.00,735.000000,,2013-04-27 19:42:00,
2013-04-27 14:53:00,70.0,46.0,-100.00,SSE,162,7.0,16.0,42,0.00,,,0.00,735.000000,,2013-04-27 19:53:00,
2013-04-27 15:02:00,70.0,46.0,-100.00,SSE,162,7.0,16.0,42,0.00,,,0.00,735.000000,,2013-04-27 20:02:00,
2013-04-27 15:11:00,70.0,46.0,-100.00,SSE,162,7.0,16.0,42,0.00,,,0.00,735.000000,,2013-04-27 20:11:00,
2013-04-27 15:42:00,69.0,46.0,-100.00,South,183,10.0,19.0,44,0.00,,,0.00,570.000000,,2013-04-27 20:42:00,
2013-04-27 15:52:00,69.0,46.0,-100.00,South,183,10.0,19.0,44,0.00,,,0.00,570.000000,,2013-04-27 20:52:00,
2013-04-27 16:02:00,69.0,46.0,-100.00,South,183,10.0,19.0,44,0.00,,,0.00,570.000000,,2013-04-27 21:02:00,
2013-04-27 16:11:00,69.0,46.0,-100.00,South,183,10.0,19.0,44,0.00,,,0.00,570.000000,,2013-04-27 21:11:00,
2013-04-27 16:12:00,68.0,44.0,-100.00,South,178,10.0,19.0,42,0.00,,,0.00,622.000000,,2013-04-27 21:12:00,
2013-04-27 16:43:00,68.0,44.0,-100.00,South,178,10.0,19.0,42,0.00,,,0.00,622.000000,,2013-04-27 21:43:00,
2013-04-27 16:53:00,68.0,44.0,-100.00,South,178,10.0,19.0,42,0.00,,,0.00,622.000000,,2013-04-27 21:53:00,
2013-04-27 17:02:00,68.0,44.0,-100.00,South,178,10.0,19.0,42,0.00,,,0.00,622.000000,,2013-04-27 22:02:00,
2013-04-27 17:42:00,67.0,44.0,-100.00,South,179,9.0,17.0,43,0.00,,,0.00,462.000000,,2013-04-27 22:42:00,
2013-04-27 17:53:00,67.0,44.0,-100.00,South,179,9.0,17.0,43,0.00,,,0.00,462.000000,,2013-04-27 22:53:00,
2013-04-27 18:02:00,67.0,44.0,-100.00,South,179,9.0,17.0,43,0.00,,,0.00,462.000000,,2013-04-27 23:02:00,
2013-04-27 18:11:00,67.0,44.0,-100.00,South,179,9.0,17.0,43,0.00,,,0.00,462.000000,,2013-04-27 23:11:00,
2013-04-27 18:32:00,67.0,44.0,-100.00,South,177,7.0,16.0,43,0.00,,,0.00,232.000000,,2013-04-27 23:32:00,
2013-04-27 18:42:00,67.0,44.0,-100.00,South,177,7.0,16.0,43,0.00,,,0.00,232.000000,,2013-04-27 23:42:00,
2013-04-27 18:52:00,67.0,44.0,-100.00,South,177,7.0,16.0,43,0.00,,,0.00,232.000000,,2013-04-27 23:52:00,
2013-04-27 19:01:00,67.0,44.0,-100.00,South,177,7.0,16.0,43,0.00,,,0.00,232.000000,,2013-04-28 00:01:00,
2013-04-27 19:11:00,67.0,44.0,-100.00,South,177,7.0,16.0,43,0.00,,,0.00,232.000000,,2013-04-28 00:11:00,
2013-04-27 20:12:00,60.0,42.0,-100.00,South,179,3.0,11.0,51,-99.99,,,0.00,19.000000,,2013-04-28 01:12:00,
2013-04-27 20:32:00,60.0,42.0,-100.00,South,179,3.0,11.0,51,-99.99,,,0.00,19.000000,,2013-04-28 01:32:00,
2013-04-27 20:42:00,60.0,42.0,-100.00,South,179,3.0,11.0,51,-99.99,,,0.00,19.000000,,2013-04-28 01:42:00,
2013-04-27 20:52:00,60.0,42.0,-100.00,South,179,3.0,11.0,51,-99.99,,,0.00,19.000000,,2013-04-28 01:52:00,
2013-04-27 21:02:00,60.0,42.0,-100.00,South,179,3.0,11.0,51,-99.99,,,0.00,19.000000,,2013-04-28 02:02:00,
2013-04-27 21:32:00,54.0,42.0,-100.00,SE,140,1.0,5.0,63,0.00,,,0.00,0.000000,,2013-04-28 02:32:00,
2013-04-27 21:42:00,54.0,42.0,-100.00,SE,140,1.0,5.0,63,0.00,,,0.00,0.000000,,2013-04-28 02:42:00,
2013-04-27 21:52:00,54.0,42.0,-100.00,SE,140,1.0,5.0,63,0.00,,,0.00,0.000000,,2013-04-28 02:52:00,
2013-04-27 22:01:00,54.0,42.0,-100.00,SE,140,1.0,5.0,63,0.00,,,0.00,0.000000,,2013-04-28 03:01:00,
2013-04-27 22:11:00,54.0,42.0,-100.00,SE,140,1.0,5.0,63,0.00,,,0.00,0.000000,,2013-04-28 03:11:00,
2013-04-27 22:12:00,49.0,42.0,-100.00,WSW,241,0.0,0.0,76,0.00,,,0.00,0.000000,,2013-04-28 03:12:00,
2013-04-27 22:43:00,49.0,42.0,-100.00,WSW,241,0.0,0.0,76,0.00,,,0.00,0.000000,,2013-04-28 03:43:00,
2013-04-27 22:53:00,49.0,42.0,-100.00,WSW,241,0.0,0.0,76,0.00,,,0.00,0.000000,,2013-04-28 03:53:00,
2013-04-27 23:02:00,49.0,42.0,-100.00,WSW,241,0.0,0.0,76,0.00,,,0.00,0.000000,,2013-04-28 04:02:00,
2013-04-27 23:12:00,45.0,41.0,-100.00,NW,323,0.0,0.0,85,0.00,,,0.00,0.000000,,2013-04-28 04:12:00,
2013-04-27 23:32:00,45.0,41.0,-100.00,NW,323,0.0,0.0,85,0.00,,,0.00,0.000000,,2013-04-28 04:32:00,
2013-04-27 23:43:00,45.0,41.0,-100.00,NW,323,0.0,0.0,85,0.00,,,0.00,0.000000,,2013-04-28 04:43:00,
2013-04-27 23:53:00,45.0,41.0,-100.00,NW,323,0.0,0.0,85,0.00,,,0.00,0.000000,,2013-04-28 04:53:00,